RH
50 53 58 62 63 61 59 62 62 56 58 48 45 35 21 13 15 21 55 54 40 53 50 22 6 6 8 9 16 35 14 14 76 88 49 43 25 13 11 10 10 10 10
58 58 59 61 64 62 53 61 62 63 54 46 52 59 52 16 13 19 50 58 44 51 52 32 7 6 7 14 15 21 15 14 40 50 46 27 22 15 11 10 10 10 10
51 50 54 60 61 63 60 58 62 63 60 52 49 45 27 19 14 18 46 62 48 51 52 42 17 6 6 7 8 9 11 13 21 30 22 19 16 11 10 9 9 9 9
45 52 51 53 53 66 66 63 64 62 59 58 56 42 41 31 20 18 39 63 48 48 49 48 34 13 7 7 7 9 11 14 17 14 13 13 11 10 9 9 9 9 10
40 47 60 58 60 63 69 64 66 64 61 62 56 51 48 46 32 18 28 62 59 50 47 50 44 30 12 8 9 10 12 13 13 11 10 9 9 9 9 9 9 9 9
44 42 47 64 62 63 68 71 64 65 66 65 61 60 55 49 45 28 20 57 70 53 51 50 50 43 29 12 10 11 12 13 14 13 12 12 12 12 12 12 11 11 10
41 42 38 30 51 67 71 74 72 68 69 68 66 64 62 56 45 45 38 36 73 67 60 54 52 49 43 31 14 12 13 14 14 15 15 16 16 17 17 17 17 17 15
32 36 39 34 24 47 65 73 78 78 76 76 75 70 64 62 61 56 55 67 80 84 79 65 55 51 48 43 32 17 13 13 13 14 15 16 17 18 18 19 19 18 17
24 22 20 25 28 32 54 69 72 77 79 80 80 76 68 66 63 58 57 58 65 84 92 92 72 61 56 55 47 32 21 14 13 12 13 13 14 14 14 14 13 13 13
13 15 14 12 20 35 51 64 69 67 71 82 82 79 71 64 63 59 54 64 59 64 82 95 94 79 67 62 61 52 39 26 17 14 14 14 13 13 13 13 12 12 12
12 11 12 13 13 20 32 51 63 72 78 82 83 80 73 69 65 59 56 63 63 57 56 64 79 96 86 75 70 66 56 42 30 21 17 16 16 16 17 16 16 15 14
14 13 12 11 11 12 17 32 49 57 65 74 80 77 71 68 66 60 55 63 70 70 67 61 60 69 89 91 82 78 68 61 46 33 26 20 20 21 23 24 26 23 21
17 18 18 18 17 16 13 11 17 39 53 57 60 68 69 66 61 56 54 56 71 74 71 70 70 62 63 85 88 86 75 69 65 52 40 31 23 24 28 30 32 32 32
14 13 12 11 10 10 11 14 16 14 12 15 28 42 47 48 51 49 50 49 70 76 76 74 70 71 67 59 72 84 77 75 72 71 58 47 37 30 27 29 31 32 34
7 8 8 8 8 8 7 7 8 9 12 14 15 14 14 16 21 39 44 45 75 82 82 80 75 74 73 69 59 57 66 76 75 74 76 68 60 50 41 36 33 34 41
9 9 10 10 10 9 9 9 8 8 8 8 9 11 14 15 16 21 34 45 77 84 85 84 82 82 81 78 70 62 64 68 71 70 75 82 83 76 66 56 55 51 50
11 12 12 12 12 12 12 11 11 10 9 9 9 9 9 10 12 16 24 45 60 79 87 85 83 87 89 88 78 71 73 75 73 72 74 78 83 84 80 77 76 74 72
13 13 13 14 14 14 14 14 14 13 12 12 11 11 10 10 9 10 12 21 45 67 77 80 77 89 97 94 92 85 80 80 79 78 81 79 79 85 87 85 90 92 89
16 17 17 17 17 16 15 14 13 12 12 12 12 12 12 11 11 10 9 11 19 46 68 66 73 86 99 99 95 92 91 87 83 85 84 86 85 89 91 90 95 75 58
18 16 14 11 8 7 6 6 6 7 8 8 7 7 8 10 11 11 10 10 11 15 38 66 75 78 95 99 96 91 90 88 86 84 86 92 94 93 98 96 71 46 41
9 8 8 8 9 8 8 11 14 17 20 23 22 20 15 15 11 10 11 10 10 10 12 39 62 84 88 95 93 94 80 84 84 82 85 92 97 99 96 62 52 47 44
16 18 22 23 25 26 24 24 26 27 28 28 31 33 33 30 28 24 16 12 11 11 11 18 53 65 77 82 79 90 88 80 81 74 69 82 92 100 95 86 63 49 48
36 35 33 32 30 29 31 35 36 35 33 31 32 34 38 40 41 40 40 25 15 13 12 12 29 57 67 70 76 94 97 88 75 76 72 81 95 93 78 59 54 52 52
44 44 41 37 34 35 38 37 36 34 35 36 37 36 37 47 53 52 52 48 34 17 14 13 17 55 78 87 79 83 84 84 81 78 79 87 87 80 73 63 56 53 57
49 48 45 43 42 42 43 40 41 41 42 40 34 30 46 54 66 67 62 59 50 32 18 15 15 28 80 79 83 77 82 92 94 98 95 92 83 72 66 61 57 59 61
13 20 37 44 47 48 46 45 45 47 46 37 42 54 58 61 64 70 71 66 58 39 25 18 16 17 56 91 78 80 87 85 83 97 98 99 93 78 68 66 65 68 70
Wind_Speed
6 6 5 4 4 4 4 3 3 4 5 6 6 7 8 6 4 2 2 5 7 10 12 13 10 6 3 0 1 2 5 4 7 8 1 3 3 4 3 3 2 3 3
7 7 6 6 6 6 6 4 4 5 6 6 7 7 8 7 5 3 2 3 5 8 11 14 12 8 4 2 1 0 2 3 5 4 2 1 2 2 1 2 2 3 4
8 7 7 7 8 8 8 6 6 6 6 8 8 8 9 9 6 4 3 4 4 6 9 11 12 10 8 5 2 0 1 1 1 2 2 1 1 1 0 1 2 4 4
6 7 8 9 10 9 10 10 8 7 7 8 9 10 10 9 7 6 4 3 4 5 6 9 10 10 8 6 4 2 1 1 1 2 2 2 1 1 2 3 3 4 4
6 8 10 11 11 11 11 12 11 9 9 9 9 9 9 9 9 7 6 5 5 5 4 5 7 8 8 6 4 2 2 2 2 2 1 1 2 3 3 4 5 6 6
10 10 11 14 14 14 13 15 14 12 11 11 10 10 11 10 9 8 7 7 7 7 7 6 4 5 6 5 4 2 2 2 3 3 3 3 3 4 4 4 5 6 6
12 12 12 13 16 16 16 16 17 16 14 14 12 12 11 11 9 8 8 9 9 9 9 9 7 6 4 3 2 2 3 3 4 4 4 5 5 5 5 6 6 7 7
16 16 15 15 14 16 17 17 18 18 17 16 15 14 13 11 12 12 12 11 12 12 11 11 10 9 8 5 2 1 2 3 3 4 5 5 6 6 6 7 7 8 8
19 17 16 16 16 16 17 19 20 20 19 19 19 17 16 14 14 15 15 15 15 14 14 13 13 12 11 9 7 4 4 4 3 3 4 5 5 5 6 7 7 7 8
14 16 18 18 18 17 18 19 20 21 22 21 21 19 18 17 17 17 18 18 18 17 16 16 15 15 15 13 12 9 7 7 6 5 4 4 4 4 5 5 6 6 7
15 16 17 17 18 20 22 21 22 21 22 23 23 22 22 21 21 21 20 20 19 19 19 18 18 18 17 17 16 14 11 9 9 8 8 7 6 5 4 5 5 5 6
17 18 19 19 20 21 23 25 26 26 26 25 26 27 27 26 26 26 25 22 21 19 19 19 19 20 20 19 19 19 16 14 12 11 11 10 9 9 7 7 6 6 6
20 20 22 22 22 23 24 25 27 29 31 31 32 32 33 32 32 32 30 27 26 25 23 22 21 21 21 22 22 22 21 19 16 15 15 14 13 13 12 11 10 9 8
20 22 23 24 25 26 26 27 28 29 31 33 35 38 39 38 35 34 33 31 31 29 28 26 25 24 23 24 25 26 24 23 20 19 19 19 17 17 16 16 14 14 13
21 22 23 25 26 28 30 31 32 32 33 34 34 36 36 36 36 35 35 35 34 32 31 29 28 28 28 28 29 29 28 26 25 24 23 23 21 20 21 20 19 18 17
24 25 26 27 28 30 31 34 35 36 37 38 38 38 38 38 38 37 36 36 35 34 33 32 31 31 32 31 31 31 30 29 29 28 27 26 25 25 25 23 22 21 20
29 30 31 32 33 34 35 37 38 39 41 42 42 42 42 43 42 40 39 39 38 37 37 35 34 35 34 32 33 32 31 30 30 30 30 29 29 29 27 25 24 23 24
32 33 34 36 36 38 39 40 41 42 44 45 45 47 47 46 46 45 45 42 41 41 40 39 36 35 34 32 32 32 32 32 31 31 31 31 31 30 28 26 25 25 24
35 36 37 38 39 41 42 43 44 45 46 47 48 49 51 51 51 50 48 47 45 46 44 43 40 38 36 34 33 31 30 31 30 31 30 31 33 33 31 26 24 24 23
37 37 38 37 37 39 40 41 42 44 44 46 48 49 51 52 53 54 53 51 49 49 48 45 42 40 39 36 34 33 32 31 32 33 32 33 35 36 30 23 22 21 23
35 37 37 38 38 39 40 40 41 42 43 45 46 47 49 50 52 55 54 53 51 50 49 49 45 44 42 39 38 37 36 35 35 34 32 33 34 32 28 20 18 22 25
35 37 36 37 35 34 35 36 37 38 38 39 41 46 48 50 50 50 52 53 53 52 50 50 49 48 44 41 41 40 39 38 37 35 35 33 33 29 28 28 22 24 26
33 33 32 33 33 32 32 32 33 33 33 33 34 39 44 47 49 49 48 49 50 51 51 48 51 50 46 44 41 39 41 41 38 36 36 33 31 29 27 25 27 28 30
24 24 25 25 25 25 25 25 27 29 33 34 33 33 35 41 45 47 46 46 47 48 50 50 48 49 45 41 41 39 39 39 39 39 36 34 34 32 31 30 31 33 34
17 18 20 22 22 22 24 28 29 31 34 34 34 33 29 30 33 38 42 42 43 44 45 46 46 47 47 45 41 40 37 38 37 37 38 36 35 32 32 32 34 35 37
18 19 21 22 24 25 25 26 27 28 30 31 27 24 22 22 23 25 30 33 37 39 39 39 40 43 46 43 44 41 39 40 39 40 42 40 40 37 35 33 33 35 38
Wind_Direction
203 202 208 209 239 260 259 272 293 313 318 333 340 348 351 341 327 292 312 338 352 2 7 8 12 17 10 276 189 252 201 171 119 154 97 99 101 124 94 81 64 51 48
202 210 224 224 233 248 260 262 285 301 306 321 327 330 337 339 328 303 295 334 355 3 8 10 8 7 10 10 22 104 130 175 197 213 232 343 100 105 68 33 12 12 7
222 228 224 235 242 244 246 259 270 288 306 318 326 329 333 335 328 302 289 317 327 1 10 13 18 12 3 1 11 23 152 171 188 229 275 316 178 123 309 344 338 346 350
233 243 238 245 251 253 251 253 254 273 295 307 316 324 331 332 327 304 274 285 303 343 356 4 12 18 19 15 13 14 22 243 243 314 294 285 282 305 314 322 326 331 333
227 244 239 243 248 249 254 255 253 259 282 296 303 311 321 326 325 310 282 277 279 293 314 344 1 9 17 21 32 21 9 327 330 330 330 311 312 316 321 324 326 328 330
246 238 241 239 245 246 249 251 251 255 265 278 286 296 304 308 314 311 287 272 275 282 293 306 329 351 7 19 21 356 333 313 321 323 324 321 321 322 321 322 323 324 325
254 248 247 253 245 244 248 250 252 251 256 263 267 280 287 294 301 307 300 275 271 277 283 290 299 307 322 346 28 349 321 308 305 306 305 302 304 310 315 321 320 318 319
263 261 254 251 255 249 248 249 253 257 260 262 264 269 274 277 290 296 295 284 278 274 275 278 281 287 296 299 302 262 268 277 286 286 285 288 292 298 303 304 304 307 309
265 266 269 262 253 246 246 250 253 258 262 264 266 267 270 272 279 287 290 282 274 270 268 270 274 279 278 281 282 274 268 254 241 259 273 281 288 292 297 299 301 302 302
270 268 266 263 257 250 249 248 253 253 256 259 263 264 265 272 274 284 287 278 272 271 268 265 265 270 275 275 277 275 270 275 276 261 248 250 262 274 287 289 290 293 296
261 263 266 269 264 257 253 253 254 257 257 255 254 257 262 266 270 278 281 276 272 270 269 267 265 262 265 270 273 275 270 264 266 269 270 260 249 245 253 262 275 290 297
260 264 264 266 267 266 260 256 257 259 260 259 259 260 262 264 266 270 273 270 266 267 269 270 267 262 261 264 266 271 271 265 261 259 259 263 263 262 255 256 262 267 279
263 266 270 272 272 270 269 267 263 261 260 261 261 261 262 263 264 266 266 264 261 261 264 268 269 266 261 257 258 261 264 264 260 258 261 260 256 256 261 263 269 273 276
267 272 276 278 277 277 274 271 268 266 264 262 261 262 262 263 264 263 262 261 255 256 259 263 265 264 262 261 258 258 260 260 260 257 256 258 258 260 261 262 264 271 275
274 272 269 269 271 273 275 274 273 270 267 266 265 264 263 262 260 261 260 259 257 255 257 258 259 259 263 263 261 260 259 260 261 259 257 257 257 258 261 263 264 268 273
279 277 276 275 272 270 270 270 271 272 272 270 268 266 266 264 261 257 255 255 254 256 257 258 260 261 262 259 256 255 256 259 261 262 261 257 258 259 260 263 269 272 275
282 282 281 280 279 277 275 274 273 273 273 273 273 272 269 268 266 261 253 251 252 253 255 256 258 260 260 263 258 255 256 256 258 262 264 263 263 262 264 267 270 274 276
280 279 280 280 279 278 277 276 274 273 272 272 272 272 272 271 269 265 262 255 250 253 254 254 256 257 259 261 258 257 258 256 256 257 259 261 261 261 263 263 269 272 274
281 281 281 280 279 278 277 276 275 274 272 270 268 267 267 267 266 265 263 260 253 250 253 254 251 253 256 256 256 256 257 257 256 257 257 259 260 260 262 264 266 267 274
282 282 282 282 281 279 279 278 276 274 272 270 268 266 264 263 264 264 263 261 257 252 249 252 255 254 255 254 252 255 256 257 257 258 259 257 258 262 262 254 256 269 277
285 287 288 288 288 287 284 283 281 278 275 273 271 268 265 263 261 260 259 259 259 257 252 249 249 250 252 252 254 255 254 255 256 259 260 260 263 261 246 247 261 270 278
293 294 295 291 290 289 288 288 287 286 283 278 274 271 267 263 260 258 259 259 255 254 252 247 248 250 252 255 257 258 259 254 257 261 263 262 263 263 265 267 262 269 281
297 297 296 294 294 292 290 292 293 295 295 290 282 275 270 267 261 261 260 256 253 252 254 251 244 246 250 250 253 258 261 262 263 259 260 258 256 258 259 258 264 275 283
308 306 305 304 301 297 297 297 299 303 299 297 294 286 277 268 263 261 262 262 261 255 250 251 249 246 247 249 247 249 256 263 266 264 255 255 254 256 259 263 268 275 283
322 319 316 314 311 309 308 307 306 310 308 305 301 295 288 278 273 265 260 262 259 257 257 254 251 245 247 250 250 249 251 255 258 260 255 250 251 253 257 259 265 273 283
337 338 330 327 324 316 316 311 316 317 312 311 305 301 301 297 284 275 268 261 255 255 256 256 257 254 247 248 251 252 251 251 255 256 258 251 249 247 253 260 269 277 285